This is the latest recevied weather packets stored in our database for station/object DB0ASF-4. If no packets are shown the sender has not sent any weather packets the latest 1 day(s).
| Time | Temp. | Humidity | Pressure | Rain* | Wind** | Luminosity | Snow |
|---|---|---|---|---|---|---|---|
| 1778005158 | 15° C | 84% | 1011.7 hPa | 0 mm | 0 m/s | - | - |
| 1778004558 | 15° C | 84% | 1011.7 hPa | 0 mm | 0 m/s | - | - |
| 1778003958 | 15° C | 84% | 1011.7 hPa | 0 mm | 0 m/s | - | - |
| 1778003358 | 15.56° C | 84% | 1012 hPa | 0 mm | 0 m/s | - | - |
| 1778002758 | 15.56° C | 84% | 1011.9 hPa | 0 mm | 0 m/s | - | - |
| 1778002158 | 15.56° C | 84% | 1011.9 hPa | 0 mm | 0 m/s | - | - |
| 1778001558 | 15.56° C | 84% | 1012 hPa | 0 mm | 0 m/s | - | - |
| 1778000958 | 15.56° C | 84% | 1011.9 hPa | 0.51 mm | 0 m/s | - | - |
| 1778000358 | 15.56° C | 83% | 1012 hPa | 0.51 mm | 0 m/s | - | - |
| 1777999758 | 15.56° C | 83% | 1011.9 hPa | 1.02 mm | 0 m/s | - | - |
| 1777999158 | 15.56° C | 82% | 1012 hPa | 1.02 mm | 0 m/s | - | - |
| 1777998558 | 15.56° C | 82% | 1012.2 hPa | 1.02 mm | 0 m/s | - | - |
| 1777997958 | 15.56° C | 81% | 1012.2 hPa | 1.02 mm | 0 m/s | - | - |
| 1777997358 | 16.11° C | 81% | 1012.2 hPa | 0.51 mm | 0 m/s | - | - |
| 1777996758 | 16.11° C | 81% | 1012.4 hPa | 0.51 mm | 0 m/s | - | - |
| 1777996158 | 16.11° C | 81% | 1012.2 hPa | 0 mm | 0 m/s | - | - |
| 1777995558 | 16.11° C | 80% | 1012.2 hPa | 0.51 mm | 0 m/s | - | - |
| 1777994958 | 16.11° C | 79% | 1012 hPa | 0.51 mm | 0 m/s | - | - |
| 1777994358 | 16.11° C | 79% | 1012.2 hPa | 1.02 mm | 0 m/s | - | - |
| 1777993758 | 16.11° C | 79% | 1012.2 hPa | 1.02 mm | 0 m/s | - | - |
| 1777993158 | 16.11° C | 78% | 1012.2 hPa | 1.02 mm | 0 m/s | - | - |
| 1777992558 | 16.11° C | 77% | 1012.2 hPa | 2.03 mm | 0 m/s | - | - |
| 1777991958 | 16.11° C | 75% | 1012.2 hPa | 1.52 mm | 0 m/s | - | - |
| 1777991358 | 16.67° C | 73% | 1012.2 hPa | 1.52 mm | 0 m/s | - | - |
| 1777990758 | 17.22° C | 70% | 1012.4 hPa | 1.02 mm | 0 m/s | - | - |
* Rain latest hour (hover to see other rain measurements)
** Current wind speed in m/s (hover to see current wind gust speed)